Location: Unspecified
(0.0000°N, 0.0000°E)
Time: 20:49:59
(UTC+00:00)

Explorer 11/Cluster Stage 4 - Visible Passes

Search period start: 24 July 2024 00:00
Search period end: 03 August 2024 00:00
Orbit: 465 x 1214 km, 28.8° (Epoch: 24 July)

Date Brightness Start Highest point End Pass type
(mag) Time Alt. Az. Time Alt. Az. Time Alt. Az.
24 Jul 8.2 03:36:53 37° N 03:36:53 37° N 03:42:13 10° NE visible
24 Jul 9.2 05:22:34 10° NW 05:24:34 11° NNW 05:26:29 10° N visible
25 Jul 8.6 03:19:43 31° N 03:19:43 31° N 03:24:01 10° NE visible
25 Jul 9.3 05:04:41 10° NW 05:06:27 11° NNW 05:08:10 10° N visible
26 Jul 9.0 03:02:29 24° NNE 03:02:29 24° NNE 03:05:45 10° NNE visible
26 Jul 9.4 04:46:52 10° NW 04:48:19 11° NNW 04:49:43 10° NNW visible
27 Jul 9.3 02:45:12 19° NNE 02:45:12 19° NNE 02:47:26 10° NNE visible
27 Jul 9.5 04:29:15 10° NNW 04:30:09 10° NNW 04:31:02 10° NNW visible
28 Jul 9.7 02:27:53 14° NNE 02:27:53 14° NNE 02:29:02 10° NNE visible
29 Jul 9.9 02:10:31 10° NNE 02:10:31 10° NNE 02:10:35 10° NNE visible
